RH
49 48 51 56 56 56 59 58 55 55 59 55 52 54 55 55 50 49 49 46 48 47 47 53 52 44 40 40 39 36 32 29 24 26 36 38 42 37 26 31 40 46 48 46 49 51 53 54 56 56 55 55 56 56 53 49 46 45 48 49 49 50 52 54 57 59 58 55 55 56 54 51 50 50 50 49 48 49 52 55 57 59 59 59 59
48 48 50 55 55 57 60 55 52 54 56 54 50 52 54 55 51 47 47 48 48 45 46 52 52 45 41 41 40 37 32 30 27 26 36 39 43 40 25 26 36 42 45 45 45 48 49 51 53 55 56 56 56 57 56 54 51 49 46 45 45 49 53 57 60 62 60 57 57 56 53 51 52 53 52 52 51 52 55 58 60 61 60 60 60
49 49 50 52 52 55 55 54 56 53 51 52 51 51 53 52 47 45 47 47 46 44 46 53 53 45 43 44 39 37 33 33 34 28 35 40 41 44 33 26 31 38 45 45 44 45 47 49 50 52 54 56 57 57 57 56 56 55 50 47 47 47 49 54 57 59 59 56 56 55 52 52 54 56 56 57 58 58 60 62 64 63 63 63 63
49 49 51 53 52 52 53 53 55 52 50 51 49 49 51 49 43 41 43 44 45 45 44 47 50 45 45 46 40 38 32 34 37 26 30 39 37 45 46 37 34 36 42 44 44 44 46 47 49 52 52 55 58 58 58 58 59 59 55 54 54 50 47 49 51 53 53 52 51 51 52 55 57 59 60 64 64 63 65 66 66 66 65 66 64
45 45 49 53 52 52 55 54 52 51 52 47 44 49 52 50 45 42 43 45 47 46 43 44 48 47 46 44 40 36 32 37 38 25 31 41 35 41 46 44 42 39 39 41 43 45 46 48 48 50 51 52 55 57 58 59 60 60 58 59 59 56 53 52 52 53 53 53 52 51 52 54 56 56 58 62 63 62 63 64 65 66 67 68 66
42 42 46 52 53 53 54 54 52 51 51 47 47 54 52 48 48 48 48 47 47 47 47 45 44 47 44 42 40 34 35 40 32 24 33 39 37 42 43 45 47 44 43 41 41 43 45 48 48 50 50 49 51 51 53 55 57 58 57 58 59 60 59 57 56 56 56 56 55 54 54 54 55 55 56 57 58 58 57 58 60 61 63 66 66
41 41 43 50 55 55 54 54 52 50 53 50 48 52 50 50 51 50 51 51 52 53 52 49 46 47 43 42 40 34 38 37 26 25 32 36 41 45 43 46 49 48 47 45 43 43 43 46 47 48 48 48 48 48 49 50 52 53 54 54 56 59 61 60 60 58 58 59 58 58 58 57 58 59 58 58 59 59 58 57 56 57 59 62 64
38 39 40 45 53 57 57 56 50 51 56 50 49 54 52 53 52 50 55 56 59 59 55 53 51 48 44 43 38 35 38 33 28 31 32 40 47 45 44 44 43 43 46 47 46 44 41 42 46 46 46 47 48 48 49 49 49 52 54 53 54 55 57 60 60 60 61 61 61 62 62 61 62 61 61 60 61 62 62 61 58 57 58 61 64
35 37 39 44 50 55 58 57 53 55 57 51 52 56 54 55 53 54 59 60 63 62 58 55 53 50 46 44 36 35 36 30 33 36 34 42 46 45 46 44 39 39 43 46 47 45 39 36 40 44 46 47 47 48 48 48 49 52 54 54 54 54 54 56 57 58 60 61 60 61 62 63 62 62 62 61 60 60 61 61 60 58 57 58 61
35 36 37 43 48 52 55 55 55 56 54 53 53 52 53 55 57 57 58 62 65 61 56 53 49 49 50 48 38 34 34 27 31 37 37 41 42 44 46 44 43 41 44 46 45 45 41 37 38 40 41 42 42 44 45 47 49 50 52 53 54 55 55 56 56 57 59 59 58 57 58 59 59 58 58 58 58 57 57 57 58 58 57 57 58
35 36 37 41 46 51 52 51 53 53 51 55 57 56 53 52 56 56 52 58 61 57 53 49 47 48 51 52 44 39 36 29 32 39 39 39 39 43 43 41 40 39 42 44 44 45 42 43 46 46 45 43 41 42 42 44 47 48 50 50 52 53 54 55 56 58 58 58 58 57 56 57 58 57 57 56 56 56 55 55 55 56 56 55 56
34 36 38 40 45 51 51 49 51 53 52 52 57 58 52 49 52 51 49 51 52 50 47 46 46 44 46 51 50 43 35 30 38 46 45 41 41 44 44 42 39 37 39 40 43 46 43 44 48 49 49 47 44 42 41 41 43 45 46 47 48 51 52 53 55 57 57 56 57 57 57 57 57 57 57 55 54 54 53 53 53 53 52 52 52
35 36 38 40 43 50 52 49 51 55 53 49 52 53 50 52 51 48 49 48 49 48 43 43 45 39 40 46 47 43 35 31 38 47 49 46 48 50 48 47 42 35 36 36 36 41 44 45 45 47 46 46 48 46 42 40 40 42 43 44 46 48 49 50 51 54 55 55 54 55 55 54 54 53 53 52 50 49 49 50 50 49 47 46 46
35 36 38 41 42 46 48 47 50 55 53 49 49 47 48 52 51 49 48 47 48 44 39 43 43 38 37 38 41 42 38 36 39 47 48 45 50 54 50 50 45 36 36 36 32 35 43 43 40 43 42 44 49 50 46 43 42 43 43 43 44 46 46 47 48 49 49 48 45 45 45 44 44 42 42 42 41 42 43 43 42 41 39 38 38
34 35 37 40 42 44 47 48 49 52 56 55 51 47 49 55 54 51 48 49 48 39 35 40 39 37 37 36 36 36 36 39 43 50 51 46 49 50 45 44 40 35 34 33 33 35 40 38 34 37 38 41 46 48 48 44 40 40 41 42 43 45 45 45 43 41 39 37 34 33 32 31 30 29 29 29 30 32 34 34 33 32 32 31 31
33 34 36 39 41 43 45 49 49 49 54 55 51 49 51 55 56 52 49 52 51 42 37 39 38 39 42 39 37 35 35 38 43 52 54 50 52 50 45 40 34 33 31 28 33 37 38 36 33 32 35 37 41 44 43 38 34 35 35 35 37 39 40 39 36 33 32 30 28 27 26 25 24 24 24 24 25 26 26 27 26 26 26 26 26
29 31 35 37 39 41 42 47 49 48 51 53 53 55 55 56 55 49 48 51 50 44 39 40 41 41 42 40 41 46 43 36 40 48 50 50 54 54 51 48 39 35 34 30 33 38 39 36 32 32 35 36 39 41 38 34 31 29 28 27 27 28 29 29 28 27 26 26 26 26 25 25 24 24 24 23 23 23 23 23 23 23 23 23 24
27 29 33 36 36 37 39 43 48 50 51 52 55 59 59 57 53 48 49 49 47 44 40 41 41 39 41 41 43 48 43 40 44 45 44 46 51 52 51 52 46 41 42 40 38 39 42 42 40 42 44 44 43 41 39 37 33 29 26 24 23 23 22 22 23 24 24 25 26 27 27 27 27 27 26 26 26 25 26 26 26 26 26 26 26
28 27 30 34 35 36 36 39 43 47 49 49 51 59 61 58 52 48 49 46 43 43 41 41 39 36 40 41 42 44 40 45 49 44 43 44 46 47 48 50 49 47 48 48 48 46 47 49 50 52 53 51 49 47 47 45 40 37 33 29 26 25 24 23 23 24 24 25 26 27 28 29 30 30 31 31 31 31 31 31 30 30 29 29 29
28 28 28 31 34 35 36 38 38 40 45 46 50 58 62 59 52 47 46 42 40 41 41 41 39 38 40 40 40 42 42 45 47 46 48 48 46 47 48 48 47 48 48 50 55 52 49 53 54 56 57 55 53 53 53 50 45 44 42 38 35 32 29 28 26 25 25 25 26 26 27 28 30 31 32 33 33 33 33 33 33 32 32 31 30
25 26 27 29 33 34 35 38 37 36 39 44 50 56 57 56 51 46 43 40 39 41 40 41 42 42 42 40 41 41 41 42 44 45 48 51 51 49 49 47 44 46 45 48 54 50 48 53 53 54 56 55 55 53 53 50 45 45 45 43 40 36 34 33 31 29 28 28 27 27 27 27 28 29 30 31 32 32 32 32 33 33 33 33 32
25 26 26 26 29 33 35 38 39 36 36 42 48 52 54 54 50 46 44 40 39 42 40 38 40 42 41 42 43 43 42 42 42 43 45 48 51 51 52 47 44 48 46 45 48 48 49 52 52 52 52 52 53 52 52 50 46 46 46 41 38 37 37 36 35 33 32 31 30 30 30 30 31 32 33 34 34 34 34 35 36 36 37 37 37
30 29 27 25 28 31 34 38 39 37 36 39 44 48 52 53 48 46 46 40 39 43 41 36 37 42 43 43 44 44 44 42 41 42 43 44 46 50 54 51 49 51 48 44 45 45 47 49 50 49 47 49 50 49 50 49 47 47 46 41 38 38 37 38 38 37 36 35 35 36 37 37 37 37 38 38 38 38 38 39 39 39 40 41 41
30 32 30 27 29 29 31 36 39 38 37 37 42 46 51 52 48 46 45 41 39 42 43 38 37 42 43 44 44 43 44 43 41 41 42 43 43 46 50 51 50 49 48 48 45 43 43 44 46 45 43 46 46 47 48 49 48 46 44 43 41 39 39 39 40 40 40 40 41 41 42 42 42 43 43 43 43 43 43 43 43 43 44 46 47
25 30 31 31 31 28 27 33 36 37 38 37 40 44 47 50 49 46 44 42 40 41 43 40 39 41 42 44 45 45 45 44 43 42 41 42 43 44 45 44 44 44 47 49 45 43 42 41 42 42 42 44 44 45 46 47 48 46 44 43 42 41 41 41 42 42 41 41 41 42 43 44 45 47 47 47 48 47 48 48 48 49 49 50 51
20 22 25 31 33 29 26 30 34 36 38 38 38 42 44 46 48 46 43 43 41 41 44 43 41 42 42 44 46 46 46 45 43 43 42 42 43 44 44 42 42 43 46 47 46 45 45 42 41 41 42 42 43 44 45 46 46 45 43 42 41 41 42 42 41 40 39 39 40 41 42 44 45 46 47 47 48 48 48 49 50 51 52 53 53
18 17 19 24 29 28 26 29 33 35 37 37 36 39 41 43 44 45 44 45 44 43 45 44 42 42 43 46 48 48 47 46 44 43 42 42 43 43 45 43 42 42 43 45 45 45 45 44 42 41 41 42 42 43 44 45 45 43 41 41 42 41 41 41 39 38 37 37 38 39 39 41 42 43 44 45 46 46 46 46 46 47 49 50 50
19 18 17 18 21 23 24 26 30 33 35 36 36 35 36 38 41 42 42 46 48 47 46 45 42 41 42 44 47 48 49 47 45 43 41 42 42 43 46 46 44 43 42 44 43 42 43 43 43 42 41 41 41 43 44 43 43 41 39 41 43 42 41 41 39 38 37 36 37 38 38 38 39 40 42 42 43 43 43 43 42 43 44 44 43
20 20 18 17 17 18 20 23 26 30 32 34 35 33 31 33 36 39 41 44 48 49 47 45 43 41 42 43 42 45 50 48 46 45 43 42 44 45 46 46 45 45 44 43 43 43 43 43 43 43 43 41 41 43 42 41 42 39 38 41 44 43 42 41 40 38 37 36 37 38 38 38 38 39 40 41 42 42 43 43 43 43 43 42 42
18 21 21 19 17 17 17 19 22 26 30 32 34 33 31 30 33 37 40 43 47 49 47 45 43 41 43 44 40 40 47 48 47 48 47 44 44 46 48 47 45 45 44 44 44 44 44 42 41 42 43 42 41 42 42 42 42 40 40 44 46 44 42 42 41 39 38 38 39 39 38 38 38 38 39 40 41 42 44 44 45 45 45 45 45
18 19 21 21 20 18 17 18 19 22 25 29 32 33 32 31 32 37 40 43 46 49 47 43 42 39 40 46 43 39 42 44 45 49 50 46 40 42 48 49 46 45 44 44 45 45 45 44 43 44 44 44 44 45 45 46 44 41 43 47 47 44 42 42 41 39 39 40 40 39 38 38 38 38 39 39 40 41 42 42 43 44 44 44 45
20 20 21 22 21 20 18 18 19 20 22 25 29 32 33 31 32 36 40 42 45 49 48 44 43 39 36 41 45 41 40 40 41 46 50 45 38 40 45 48 48 47 47 48 48 49 50 49 48 49 48 45 46 47 48 48 45 42 45 49 49 45 43 43 42 41 43 43 42 40 38 38 37 37 38 39 39 39 38 38 38 38 38 38 38
21 21 22 22 23 23 21 20 21 21 20 21 25 30 32 32 31 33 39 42 44 48 49 46 45 41 34 35 39 39 38 38 38 42 47 45 38 38 42 45 49 50 50 52 52 52 54 54 53 52 51 49 47 46 47 49 46 43 45 48 48 45 43 44 46 47 47 46 43 42 39 39 38 38 38 38 37 37 36 35 34 32 32 31 32
22 22 22 23 24 25 24 23 23 24 22 20 21 26 30 31 31 31 35 39 41 45 48 47 44 42 36 32 34 36 36 37 36 37 44 46 41 40 42 43 46 50 50 52 55 55 55 56 56 54 53 54 51 47 47 49 48 45 46 48 48 46 45 47 50 49 47 46 44 42 40 40 39 39 38 37 36 35 34 33 31 30 29 28 27
24 23 23 24 25 26 27 26 26 26 25 23 21 23 27 29 30 31 34 36 39 43 46 44 42 42 38 33 33 35 34 36 36 35 40 46 43 42 44 43 46 51 53 53 57 60 59 58 59 58 55 54 51 49 48 48 48 46 45 48 49 48 47 48 49 48 46 44 43 41 40 40 39 38 37 36 34 31 30 29 27 26 25 24 23
25 24 24 25 26 26 27 27 27 27 26 25 23 22 24 26 28 30 33 35 37 40 44 42 38 39 37 33 32 34 34 35 35 34 36 42 44 43 45 46 46 50 57 56 55 59 62 62 61 60 58 56 53 52 49 47 48 48 45 46 49 49 47 47 48 48 46 44 42 41 41 41 39 37 36 33 30 28 26 25 24 23 22 21 21
26 27 24 24 25 25 25 26 26 26 26 25 24 23 23 25 27 28 31 33 34 36 40 42 39 37 34 31 31 32 33 34 34 34 35 38 41 43 44 47 46 47 54 58 54 53 58 62 63 62 62 62 60 56 50 45 48 50 47 46 48 48 45 44 48 50 47 43 42 42 42 42 38 36 34 30 27 26 25 24 23 22 21 19 19
24 27 26 23 22 23 22 22 23 23 24 24 23 23 23 23 26 27 28 30 31 31 36 41 41 39 35 32 31 31 32 33 34 34 35 35 39 42 43 45 46 45 47 54 55 51 52 58 64 66 66 66 65 62 53 46 47 52 51 49 48 48 46 44 48 54 51 44 43 42 41 39 37 33 30 28 26 24 23 22 21 21 19 19 19
25 26 28 26 23 23 23 23 23 23 23 24 23 22 22 22 24 26 27 28 28 29 34 40 42 40 37 33 32 32 32 32 32 33 34 35 37 39 41 42 44 44 44 48 52 52 53 57 63 67 69 67 66 64 59 52 50 52 52 51 51 52 50 46 48 54 54 46 42 42 40 39 37 34 31 28 25 23 22 21 19 20 20 21 21
30 28 29 29 26 25 25 25 25 25 25 25 25 24 23 22 23 25 26 26 26 25 30 39 43 43 39 35 33 32 32 33 33 33 34 34 35 38 41 42 43 43 43 45 49 52 56 61 65 67 70 69 66 65 64 59 54 51 49 49 51 52 50 48 47 50 50 45 40 39 39 38 37 35 32 28 24 23 24 22 20 21 22 22 22
36 33 34 35 32 28 28 28 27 27 27 27 27 26 25 24 23 26 27 25 24 23 26 34 41 44 42 38 35 34 34 34 33 34 35 34 35 37 40 41 42 43 43 44 49 52 57 64 67 67 70 71 67 65 64 61 54 50 49 49 50 50 49 49 48 47 47 44 39 36 35 33 33 32 29 26 24 23 24 23 22 23 23 22 23
41 38 39 42 42 37 33 31 30 29 28 27 27 26 26 24 23 23 25 24 22 20 23 28 36 42 42 39 37 37 36 36 35 35 36 36 35 37 39 41 41 41 40 42 46 50 55 62 68 69 70 70 67 64 62 59 56 55 54 52 51 49 49 50 49 46 44 43 39 35 30 27 26 24 21 21 22 24 24 23 24 23 22 22 21
44 43 41 43 46 46 42 38 35 32 29 27 26 26 25 25 24 23 24 24 23 21 21 24 31 39 39 37 38 38 38 38 38 37 37 37 36 36 38 40 40 39 38 38 41 45 51 59 67 69 70 70 69 67 63 62 62 60 58 55 52 49 48 49 50 47 43 41 38 32 26 22 21 18 17 19 22 24 24 23 23 22 20 17 14
44 44 42 42 45 48 49 46 42 38 34 31 29 28 26 25 25 25 25 25 25 23 22 22 27 34 36 34 36 38 38 39 40 40 39 38 37 37 38 39 40 39 38 37 38 41 45 54 64 68 68 69 70 70 69 67 65 63 59 57 54 50 48 48 48 46 41 38 34 28 22 20 20 20 20 21 22 22 22 22 21 19 16 12 9
44 43 42 41 42 45 48 49 48 44 40 36 32 31 30 28 26 26 26 26 27 26 24 23 25 30 31 32 34 36 37 38 39 39 38 38 38 39 40 41 41 42 41 39 38 38 40 49 61 66 66 67 69 71 72 70 67 64 60 57 55 51 48 46 45 43 39 35 30 26 21 19 20 21 20 20 20 20 20 20 19 17 13 9 7
44 43 42 42 43 43 45 47 48 47 45 43 39 35 33 32 30 28 27 26 27 27 25 25 28 28 26 28 32 33 36 38 38 38 37 37 39 40 41 43 44 45 45 44 41 39 39 45 56 64 65 65 67 71 74 71 68 65 60 57 55 53 50 47 45 42 36 29 26 23 21 20 19 19 19 19 19 19 19 20 18 15 12 9 7
43 43 43 44 44 45 46 47 49 48 48 48 45 41 38 35 34 32 31 28 27 28 27 28 31 29 25 25 29 31 34 36 35 36 37 36 37 40 41 43 45 45 46 47 46 43 40 41 49 60 66 64 65 70 73 70 68 66 62 56 55 54 53 49 44 39 32 28 27 25 22 20 19 19 19 18 18 18 19 19 17 14 12 10 7
46 45 44 44 45 46 46 47 47 47 48 50 48 45 41 39 38 36 35 33 31 31 31 30 31 28 25 27 29 29 31 34 34 35 37 36 36 38 40 43 45 46 46 48 49 49 47 45 49 58 64 64 64 68 70 70 70 69 64 58 55 55 53 48 43 39 34 30 28 25 21 20 19 19 19 18 18 18 18 17 16 16 15 12 8
47 46 46 46 47 47 47 47 46 45 48 50 49 47 46 45 43 42 40 38 37 36 35 35 34 30 27 30 33 31 29 31 33 35 37 37 36 36 38 41 44 46 47 49 51 52 52 52 55 60 62 63 65 67 68 71 73 71 68 62 58 57 53 48 43 39 34 29 25 23 21 21 20 19 18 18 18 17 17 17 17 17 16 12 10
47 49 50 50 50 49 49 49 48 47 48 50 49 48 50 49 48 47 45 43 41 39 38 38 37 36 32 31 35 34 29 28 31 34 36 38 36 35 36 39 42 45 48 50 53 55 54 55 60 65 64 62 65 67 68 70 72 74 73 68 63 61 56 49 42 35 31 27 24 21 20 20 19 19 19 18 17 16 16 16 16 17 17 16 14
49 51 52 53 53 52 52 52 51 49 49 50 49 48 49 50 50 51 50 49 46 42 40 41 42 41 38 36 36 36 32 28 29 31 34 37 38 37 37 38 41 44 47 51 54 55 56 57 61 68 69 65 65 67 69 69 71 76 77 73 69 64 58 50 43 36 31 27 22 19 18 19 19 19 18 17 16 16 16 16 16 17 17 16 15